Culiacan, Mexico

2:24 PM MDT on April 23, 2017 (GMT -0600)
Culiacan International

Weather History for MMCL - December, 2012

Change the Weather History Date:

Tuesday, December 4, 2012

  Actual Average Record
Temperature  
Mean Temperature 72 °F -  
Max Temperature 89 °F 83 °F 93 °F (2006)
Min Temperature 56 °F 59 °F 55 °F (2016)
Cooling Degree Days 8    
Growing Degree Days 22 (Base 50)    
Moisture  
Dew Point 61 °F    
Average Humidity 63    
Maximum Humidity 94    
Minimum Humidity 27    
Precipitation  
Precipitation 0.00 in - - ()
Sea Level Pressure  
Sea Level Pressure 29.99 in    
Wind  
Wind Speed 1 mph ()    
Max Wind Speed 12 mph    
Max Gust Speed -    
Visibility 9.4 miles    
Events      
Averages and records for this station are not official NWS values.
T = Trace of Precipitation, MM = Missing Value Source: Averaged Metar Reports

Daily Weather History Graph

Daily Weather History Graph

Search for Another Location

Airport or City:

Trip Planner

Search our weather history database for the weather conditions in past years. The results will help you decide how hot, cold, wet, or windy it might be!

Date:

Astronomy

Dec. 04, 2012 Rise Set
Actual Time 6:39 AM MST 5:20 PM MST
Civil Twilight 6:15 AM MST 5:45 PM MST
Nautical Twilight 5:46 AM MST 6:13 PM MST
Astronomical Twilight 5:19 AM MST 6:41 PM MST
Moon 10:47 PM MST (12/4) 10:56 AM MST (12/4)
Length of Visible Light 11h 30m
Length of Day
10h 40m
Waning Gibbous, 69% of the Moon is Illuminated
Dec 4
Waning Gibbous
Dec 6
Last Quarter
Dec 13
New
Dec 19
First Quarter
Dec 28
Full

Hourly Weather History & Observations

Time (MST) Temp. Heat Index Dew Point Humidity Pressure Visibility Wind Dir Wind Speed Gust Speed Precip Events Conditions
1:45 AM 61 °F - 57 °F 83% 30.05 in 6 mi Calm Calm - -  
1:47 AM 62.6 °F - 60.8 °F 94% 30.02 in 10.0 mi Calm Calm - N/A   Clear
2:44 AM 64.4 °F - 62.6 °F 94% 29.99 in 10.0 mi Calm Calm - N/A   Clear
4:40 AM 58 °F - 56 °F 93% 30.03 in 6 mi Calm Calm - -  
6:40 AM 62.6 °F - 59.0 °F 88% 30.02 in 10.0 mi Calm Calm - N/A   Clear
7:35 AM 58 °F - 57 °F 94% 30.07 in 10 mi Calm Calm - -   Haze
7:41 AM 64.4 °F - 59.0 °F 83% 30.02 in 10.0 mi Calm Calm - N/A   Clear
8:40 AM 71.6 °F - 57.2 °F 60% 30.05 in 10.0 mi Calm Calm - N/A   Clear
9:40 AM 78.8 °F - 57.2 °F 47% 30.05 in 10.0 mi Calm Calm - N/A   Clear
10:42 AM 82.4 °F 82.0 °F 57.2 °F 42% 30.01 in 10.0 mi Calm Calm - N/A   Clear
10:45 AM 81 °F - 59 °F 37% 30.10 in 10 mi SW 2.2 mph - -  
11:40 AM 84.2 °F 85.0 °F 62.6 °F 48% 29.99 in 10.0 mi Calm Calm - N/A   Clear
12:40 PM 87.8 °F 87.6 °F 60.8 °F 40% 29.96 in 10.0 mi West 5.8 mph - N/A   Clear
1:45 PM 88 °F - 58 °F 27% 30.00 in 10 mi SW 2.2 mph - -  
1:45 PM 89.6 °F 90.1 °F 62.6 °F 40% 29.93 in 10.0 mi West 6.9 mph - N/A   Clear
2:43 PM 89.6 °F 90.1 °F 62.6 °F 40% 29.92 in 10.0 mi WNW 11.5 mph - N/A   Clear
3:41 PM 87.8 °F 89.4 °F 64.4 °F 46% 29.92 in 10.0 mi West 11.5 mph - N/A   Clear
4:40 PM 83 °F - 58 °F 32% 30.00 in 10 mi SW 2.2 mph - -  
4:40 PM 87.8 °F 89.4 °F 64.4 °F 46% 29.89 in 10.0 mi Calm Calm - N/A   Clear
5:40 PM 80.6 °F 81.8 °F 62.6 °F 54% 29.93 in 10.0 mi Calm Calm - N/A   Clear
6:40 PM 75.2 °F - 62.6 °F 65% 29.94 in 10.0 mi Calm Calm - N/A   Clear
7:40 PM 73.4 °F - 62.6 °F 69% 29.94 in 10.0 mi Calm Calm - N/A   Clear
7:45 PM 71 °F - 60 °F 61% 30.05 in 6 mi Calm Calm - -  
8:40 PM 71.6 °F - 64.4 °F 78% 29.96 in 10.0 mi Calm Calm - N/A   Clear
9:41 PM 71.6 °F - 64.4 °F 78% 29.98 in 10.0 mi Calm Calm - N/A   Clear
10:40 PM 66 °F - 63 °F 87% 30.06 in 6 mi Calm Calm - -  
10:40 PM 68.0 °F - 62.6 °F 83% 29.94 in 10.0 mi Calm Calm - N/A   Clear